Tracking 25949 objects as of 9-Aug-2022
HD Live streaming from Space Station
objects crossing your sky now

SL-24 R/B

Track SL-24 R/B now!
10-day predictions


NORAD ID: 33319
Int'l Code: 2008-040H
Perigee: 624.2 km
Apogee: 1,352.3 km
Inclination: 98.0 °
Period: 104.7 minutes
Semi major axis: 7359 km
RCS: 6.1238 m2 (large)
Launch date: August 29, 2008
Source: Commonwealth of Independent States (former USSR) (CIS)
Launch site: TYURATAM MISSILE AND SPACE COMPLEX (TTMTR)

Note: This is a ROCKET BODY
aabbcc
Your satellite tracking list
Your tracking list is empty




NASA's NSSDC Master Catalog

Two Line Element Set (TLE):
1 33319U 08040H   22220.91521160  .00000010  00000-0  23074-4 0  9995
2 33319  97.9572 273.0729 0494691 274.3783 264.2247 13.75146226699713
Source of the keplerian elements: AFSPC